Wind_Speed
5 5 5 5 7 8 10 11 11 11 11 11 10 10 10 10 9 8 7 6 7 8 10 11 11 11 12 13 13 13 13 13 13 13 13 12 12 11 11 11 12 13 14 15 16 15 15 15 15 16 18 21 24 27 28 28 27 27 26 26 26 27 27 27 28 30 30 28 27
8 7 6 6 5 5 5 6 7 8 9 10 10 10 10 10 10 10 9 8 7 6 6 7 9 9 9 10 9 9 10 11 11 11 11 11 11 12 12 12 12 12 12 12 13 14 15 16 18 19 20 22 24 24 23 24 24 23 22 22 23 23 23 24 26 26 26 25 24
10 9 9 9 8 7 7 6 6 5 5 6 7 8 8 8 8 8 8 8 7 7 7 7 8 9 10 9 9 9 10 10 10 10 11 11 11 12 12 12 12 11 11 11 13 15 17 18 19 20 20 21 21 21 20 21 21 20 19 19 19 19 20 20 21 22 21 21 22
11 10 10 10 10 10 9 9 8 7 6 5 5 5 5 6 6 6 6 6 6 6 7 7 7 7 7 7 8 8 8 8 8 9 9 9 9 9 10 10 10 10 10 11 13 15 16 17 18 19 19 18 18 19 19 20 19 18 17 17 17 17 17 17 17 18 18 18 19
11 11 10 10 10 10 9 9 9 8 8 7 6 6 5 5 5 6 6 6 6 6 6 7 7 6 4 2 2 4 5 5 5 4 4 4 5 5 6 7 7 8 10 11 12 14 15 16 16 16 16 15 15 15 16 16 16 15 15 15 15 15 16 16 16 16 16 15 16
11 10 10 10 9 9 8 8 8 8 8 8 8 8 7 7 6 6 6 6 6 6 7 7 8 7 6 3 1 2 4 4 4 4 4 4 4 4 5 6 7 8 9 10 11 12 12 13 12 12 12 12 11 11 12 13 13 13 13 14 14 15 15 15 15 15 14 13 13
10 10 10 9 9 8 8 7 7 7 7 8 8 9 9 8 8 7 7 7 7 7 7 7 8 7 5 3 2 1 2 3 5 5 6 5 5 5 6 7 8 9 10 10 10 10 10 10 10 10 10 10 9 10 10 11 11 11 12 12 13 14 13 13 12 12 11 11 12
9 9 9 9 9 8 8 7 7 7 7 7 8 8 8 8 8 8 7 7 7 7 7 7 7 6 5 4 3 2 3 4 5 6 7 7 7 8 8 9 10 11 12 11 11 10 9 9 9 9 9 9 9 9 9 10 10 11 11 12 12 12 11 10 10 10 10 11 11
10 10 9 9 9 8 8 7 7 7 7 7 7 8 8 7 7 7 7 7 7 7 6 6 6 5 5 4 3 3 4 5 6 8 9 9 9 9 9 10 11 12 13 13 12 12 11 11 11 11 11 11 10 10 10 10 10 11 11 11 11 11 11 11 10 10 11 11 12
10 10 10 10 10 9 8 8 7 6 6 6 7 8 8 8 7 7 7 6 6 6 6 6 6 6 5 6 5 5 6 7 9 10 10 10 9 9 9 10 11 11 12 13 13 13 13 13 12 12 12 12 12 11 11 11 10 10 11 11 11 12 12 12 11 11 11 11 12
10 10 11 11 10 10 9 8 7 6 6 7 9 9 9 8 7 7 6 6 6 6 7 7 7 7 7 7 6 6 6 7 8 8 8 7 6 6 6 7 8 9 9 10 11 12 13 13 13 14 14 14 13 12 10 9 9 9 9 10 11 12 12 11 11 10 10 11 11
11 10 10 10 10 10 9 8 7 7 7 9 10 9 8 8 7 6 6 6 6 6 7 7 8 7 7 6 6 5 5 5 4 4 4 3 3 3 3 3 4 5 6 7 8 10 11 12 13 14 14 14 12 10 8 7 6 7 8 9 10 11 11 11 10 9 9 9 10
10 10 10 10 10 9 9 8 8 8 9 9 9 9 8 8 7 6 6 7 7 6 7 7 7 7 6 6 5 4 4 3 2 2 2 2 2 2 2 2 2 3 4 5 7 8 9 10 11 12 12 10 8 6 5 4 4 5 6 7 8 10 10 10 9 8 8 9 9
10 10 10 10 10 9 9 9 9 9 9 9 9 8 8 8 8 7 7 7 7 7 6 6 6 6 5 5 4 4 4 3 2 2 2 2 2 3 3 4 5 5 6 7 7 7 8 8 8 8 7 5 4 3 3 3 3 3 4 5 7 8 9 9 8 8 8 9 9
11 11 11 11 10 10 10 10 10 10 9 9 8 8 8 8 8 8 8 8 8 7 6 5 5 5 4 3 4 4 4 3 2 1 1 1 2 3 4 5 6 6 6 6 6 6 6 6 5 5 4 4 4 3 3 2 2 2 3 4 6 7 7 7 7 7 8 9 10
12 12 11 11 11 10 10 10 10 10 10 9 8 8 8 9 9 9 9 9 9 8 7 6 5 5 4 3 3 3 3 3 2 2 1 1 1 2 3 3 3 3 3 3 4 4 4 4 4 5 5 5 4 3 2 2 2 3 4 5 5 6 5 5 6 7 8 9 10
13 13 12 12 11 11 10 10 10 10 9 9 8 8 9 9 9 9 8 8 8 7 7 6 5 5 4 4 3 3 3 3 2 2 2 1 1 1 1 1 1 1 2 2 3 4 4 4 4 4 4 3 3 2 3 3 4 4 5 5 5 5 4 4 5 7 8 9 9
13 13 13 12 12 11 11 10 10 9 9 9 9 9 9 8 8 7 7 6 6 6 6 5 5 4 4 4 3 3 3 3 3 2 2 1 1 1 1 1 1 2 2 3 3 4 4 3 3 3 2 2 2 3 4 4 5 5 6 6 6 5 5 5 6 7 8 8 7
13 13 13 13 12 11 11 10 10 10 10 10 10 9 8 8 7 6 6 6 5 5 5 5 5 4 4 4 4 3 3 3 3 3 2 2 2 2 2 2 3 3 3 3 3 2 2 1 1 1 1 2 3 4 5 5 6 6 6 6 6 7 7 7 7 7 7 7 6
12 13 12 12 11 11 10 10 9 9 9 9 8 8 7 7 6 6 7 7 6 5 5 5 5 5 5 5 5 5 5 4 4 4 4 4 3 3 3 3 3 3 3 2 2 1 1 1 2 2 3 3 4 5 6 6 7 8 8 8 8 8 8 7 7 7 7 6 7
12 12 11 10 10 9 9 9 8 8 7 7 7 7 7 7 8 8 8 8 7 6 6 7 7 7 7 7 7 7 6 6 6 6 6 5 5 5 4 4 4 4 3 3 3 3 3 3 3 4 4 5 6 7 8 8 9 10 10 10 10 10 9 8 8 7 7 7 8
10 10 9 9 8 8 8 7 7 7 7 7 8 9 9 9 9 9 9 8 8 8 8 9 9 9 9 9 9 8 8 7 7 7 7 6 6 6 6 5 5 5 5 4 4 4 4 5 5 5 6 7 8 10 11 12 13 13 13 13 12 12 11 10 9 9 9 10 10
9 8 8 7 7 7 7 7 7 8 9 10 10 10 10 10 10 10 10 10 10 11 11 12 12 12 11 11 10 10 9 9 9 8 8 7 7 7 7 7 7 7 6 5 5 5 6 7 8 9 10 11 12 13 13 13 14 14 14 14 13 13 12 12 11 10 10 11 11
8 7 7 7 7 7 8 8 9 10 11 12 12 12 12 12 12 12 13 13 14 14 14 14 14 13 12 11 11 10 10 11 10 10 9 9 9 10 10 11 11 10 9 8 7 7 8 10 11 12 13 13 13 13 13 13 13 13 13 14 14 14 13 12 11 11 10 10 10
8 8 8 9 9 10 10 11 12 12 13 12 12 12 13 13 13 14 15 15 15 15 15 14 13 13 12 12 11 11 12 12 12 12 12 12 13 14 15 15 15 14 12 11 10 10 10 11 13 14 14 14 13 13 13 13 13 13 13 14 14 13 13 12 11 10 9 9 9
9 10 11 11 11 12 12 13 13 13 13 13 13 13 14 14 14 15 15 16 15 15 15 14 14 13 13 13 14 14 15 15 15 16 16 17 17 18 18 17 16 15 13 12 11 11 11 11 11 12 13 13 13 13 13 13 13 12 13 13 12 12 12 11 10 9 8 8 8
10 11 12 12 12 13 13 13 13 13 13 13 14 14 14 14 15 15 15 15 15 15 15 15 16 16 16 17 18 18 18 18 19 19 19 19 19 18 17 16 15 14 13 12 12 11 11 10 9 10 11 12 12 13 13 13 12 11 11 11 11 10 10 10 9 8 7 7 7
11 11 12 12 13 13 13 13 14 14 14 14 14 14 14 14 15 15 16 16 16 16 17 17 18 18 19 19 19 20 20 19 19 19 19 19 19 18 18 17 16 14 13 12 11 11 10 9 8 7 8 9 10 11 11 11 11 10 10 9 9 9 9 8 8 7 7 6 6
11 11 12 13 13 13 14 14 14 14 14 14 14 14 15 15 16 17 17 18 18 19 18 18 18 18 18 18 18 19 19 19 19 19 19 19 19 19 18 16 15 14 12 11 11 10 10 8 7 6 6 6 7 8 9 9 9 9 9 9 9 8 8 8 7 7 6 6 5
12 12 12 13 13 13 14 14 14 15 15 15 16 16 17 18 18 19 19 19 19 18 18 17 17 18 18 18 18 19 19 19 19 19 20 20 20 18 17 16 15 13 12 11 10 10 9 7 6 5 5 5 6 7 8 8 9 9 10 9 9 9 8 8 8 7 7 6 6
11 12 12 13 13 13 14 14 15 15 16 17 17 18 19 19 19 19 19 18 18 17 17 17 18 19 19 19 20 20 20 20 19 19 19 19 18 18 17 16 14 13 12 11 11 10 9 8 7 6 6 6 7 8 8 9 10 10 11 10 10 10 9 9 9 8 7 7 6
11 12 12 13 13 13 14 14 15 16 16 17 17 18 18 18 18 18 18 18 18 18 18 18 19 20 20 20 20 20 20 19 19 19 18 18 18 18 17 16 15 14 13 12 12 11 10 9 8 7 7 8 8 9 10 10 11 11 11 11 10 10 9 9 9 8 8 7 7
11 12 12 13 13 13 14 15 15 16 16 17 17 18 18 18 18 18 19 19 19 19 19 19 19 19 19 19 19 18 18 18 18 18 18 18 18 18 17 17 15 14 13 13 12 12 11 10 9 8 8 8 9 10 10 11 11 11 11 11 10 9 8 8 8 8 8 8 7
11 12 12 13 13 14 14 15 15 16 17 17 18 18 18 19 19 19 19 19 19 19 19 18 18 18 17 17 17 17 17 17 17 16 16 16 17 17 18 17 16 14 13 12 12 11 10 9 9 9 9 9 10 10 10 10 10 10 10 10 9 8 8 8 8 8 8 8 8
11 12 12 13 13 14 14 15 16 16 17 17 18 18 18 19 19 19 19 18 18 18 18 17 17 16 16 15 15 15 15 15 15 14 14 14 15 16 17 16 15 13 12 11 11 10 9 9 9 9 9 10 10 10 10 10 10 10 10 10 10 10 9 9 9 8 8 7 5
11 11 12 12 13 13 14 15 15 16 17 17 17 17 18 18 18 18 17 17 17 17 17 16 16 15 15 14 14 13 13 13 13 12 12 12 13 14 15 15 14 13 12 11 11 11 11 10 10 10 10 10 10 11 11 11 12 12 12 12 11 11 10 10 9 7 6 4 2
10 11 12 12 13 13 14 14 15 16 16 16 17 17 17 17 17 16 16 16 16 17 16 16 15 15 14 14 13 12 12 11 11 12 12 12 13 14 15 15 14 13 13 13 13 13 13 13 13 12 12 12 13 13 13 13 13 12 12 11 11 10 9 8 7 7 6 6 4
10 11 12 13 13 13 14 14 15 16 16 16 16 16 16 16 16 16 15 15 16 17 17 16 16 15 14 14 13 13 12 12 12 13 14 14 15 15 16 16 16 15 14 13 13 14 14 14 14 14 13 13 13 12 12 11 11 10 10 9 8 8 7 6 7 7 8 8 7
10 11 12 13 13 14 14 14 15 15 15 15 15 15 16 16 16 15 15 15 16 16 17 17 16 16 15 14 15 15 15 15 15 16 16 17 17 17 17 17 16 15 13 12 11 11 11 11 11 11 11 11 10 9 9 8 8 8 8 7 7 6 6 6 6 7 8 8 8
10 11 11 13 13 13 14 14 14 14 14 15 15 15 15 16 15 15 14 15 15 16 16 17 16 16 15 15 16 17 17 17 17 17 17 17 17 17 16 16 15 13 11 10 9 8 8 8 7 7 7 8 7 7 7 7 7 7 6 6 6 6 5 5 5 6 6 6 7
11 11 12 13 13 13 14 14 14 14 14 14 15 15 15 15 15 14 14 15 15 15 15 16 16 16 15 16 16 17 17 16 16 16 15 15 15 15 14 14 13 12 10 9 8 8 7 7 7 6 6 6 6 6 6 6 6 6 6 6 5 5 5 5 5 5 5 5 5
Wind_Direction
7 348 325 305 289 280 276 276 275 276 279 283 287 290 294 298 302 304 302 290 268 252 244 240 237 239 244 248 251 253 255 257 257 258 258 257 255 252 248 246 247 252 259 265 269 272 275 278 279 277 275 273 272 271 271 272 272 271 269 266 265 264 263 261 262 262 260 257 256
29 27 21 12 358 340 321 308 297 287 282 283 285 287 290 294 299 304 308 311 315 307 285 261 245 240 242 248 250 253 254 254 253 253 253 252 249 246 244 244 248 255 264 274 283 291 296 296 291 284 278 274 270 268 269 272 274 275 274 271 267 263 261 260 262 261 258 256 256
29 31 33 32 30 26 20 13 2 345 323 304 293 289 291 295 303 309 311 311 314 316 312 298 273 257 251 252 251 252 252 250 249 248 248 249 248 247 247 250 255 263 275 287 297 302 302 298 291 282 274 269 266 267 270 274 276 277 275 271 267 263 260 259 258 257 256 256 254
23 25 27 28 28 28 28 26 23 17 8 352 333 318 310 311 319 327 330 327 325 325 326 324 312 293 275 264 255 249 245 243 243 243 243 244 247 249 251 256 263 272 283 292 297 299 297 292 285 277 270 264 264 267 271 274 275 274 269 266 262 261 260 259 257 257 258 257 253
18 19 21 21 21 21 22 23 22 20 17 11 6 359 352 347 350 354 357 356 356 354 354 357 3 8 10 350 233 216 210 211 208 208 204 198 216 237 252 264 271 277 282 287 288 288 286 282 277 271 266 265 266 268 270 271 270 266 261 258 256 257 258 259 259 261 261 257 253
13 14 15 16 15 16 19 20 20 18 17 15 14 13 11 10 10 11 12 11 10 10 12 18 26 36 49 59 109 182 197 202 204 200 190 182 197 228 255 266 268 271 273 274 274 274 274 273 269 265 264 265 265 265 265 266 263 259 256 254 254 255 256 258 260 261 260 256 253
9 9 10 11 11 14 17 20 21 19 15 13 13 15 17 19 22 24 22 19 16 16 19 23 27 36 45 48 30 324 262 243 235 234 232 228 231 244 254 259 261 261 260 259 259 260 261 261 257 255 255 256 254 255 256 259 258 257 255 253 254 254 254 255 257 259 259 256 251
6 6 6 7 9 13 17 19 19 17 14 13 15 16 19 23 26 27 25 22 20 19 19 19 19 24 33 38 30 360 316 287 271 262 260 262 267 268 268 268 266 262 259 257 255 252 248 245 241 239 240 243 244 247 251 255 258 257 255 252 253 254 255 256 260 262 261 256 252
4 2 3 6 9 13 15 15 15 12 12 16 22 26 30 32 31 27 22 18 13 10 9 10 7 10 16 19 9 342 316 303 296 294 294 295 293 289 285 280 273 266 262 260 257 251 245 241 239 238 239 241 242 245 250 256 259 259 258 256 257 260 262 263 264 264 261 257 253
2 0 1 4 7 10 9 7 8 9 15 26 35 42 45 44 38 30 20 10 359 352 350 351 347 347 351 356 350 337 320 309 305 306 306 306 302 293 285 278 271 266 262 260 256 250 245 240 237 236 237 238 237 238 243 250 256 259 262 264 266 267 266 264 262 259 256 254 253
2 0 0 2 3 4 3 1 3 11 26 40 47 50 50 47 40 31 18 0 349 347 347 340 334 331 336 344 348 341 327 317 312 310 308 303 295 285 275 269 265 261 257 253 248 245 242 239 235 232 230 229 227 226 229 239 249 257 265 270 271 268 263 258 255 252 249 249 249
4 3 2 2 2 2 2 3 9 24 39 48 50 49 46 41 36 27 15 4 358 357 352 342 332 330 335 344 345 339 331 324 319 314 305 296 286 278 269 263 261 258 253 246 242 242 242 241 238 234 230 226 221 218 218 226 239 252 262 269 269 264 257 253 250 246 244 243 241
8 7 7 6 7 8 10 15 25 37 46 48 47 44 38 31 23 17 12 10 10 9 2 353 346 347 354 358 358 355 353 349 342 331 323 316 311 305 295 286 276 269 263 255 248 245 244 242 239 234 229 223 220 222 229 239 246 250 254 258 259 256 252 249 246 243 239 235 231
14 15 15 15 16 19 24 30 38 43 44 44 40 35 28 21 14 13 14 16 17 17 15 12 10 11 15 21 30 34 32 25 7 352 340 329 317 306 298 292 284 277 271 265 257 250 243 238 235 233 234 236 245 263 279 283 276 263 252 246 244 244 244 245 246 244 237 227 218
21 23 23 24 27 30 34 38 41 42 41 40 35 31 27 25 19 18 22 27 26 24 24 27 33 38 44 52 63 67 68 64 46 29 14 344 312 301 295 291 286 279 271 263 255 247 240 237 241 252 269 286 296 301 297 291 278 257 239 233 231 233 236 241 247 245 235 222 207
28 29 30 32 34 36 38 41 42 41 40 39 35 34 34 35 29 27 32 38 38 35 32 36 43 52 62 70 77 85 90 92 81 65 48 25 333 305 296 289 281 273 265 260 256 254 255 259 271 285 295 298 296 286 266 237 214 205 205 209 213 217 225 236 242 236 225 214 200
32 33 35 37 39 40 40 41 41 41 39 38 36 36 36 35 31 32 36 43 43 41 38 36 36 43 53 61 63 70 77 77 67 56 45 32 13 320 284 258 253 260 274 280 283 286 286 286 289 293 293 286 267 237 209 192 186 185 188 192 195 196 201 211 220 215 209 204 198
34 36 38 41 42 42 41 40 39 38 36 35 34 32 30 29 29 31 35 39 41 41 39 34 27 28 35 44 46 49 53 52 48 42 34 24 6 339 314 307 313 326 330 325 318 312 308 300 292 283 268 243 212 190 179 174 171 171 174 175 174 172 170 174 187 195 198 198 197
36 37 39 41 43 43 42 40 36 34 33 32 32 30 28 26 28 33 38 40 39 38 36 36 32 29 31 36 39 40 40 41 44 43 38 28 20 9 359 351 350 352 354 351 343 335 329 316 286 228 195 180 170 164 160 157 155 154 154 153 150 147 147 152 166 180 190 192 188
37 37 38 40 42 43 43 41 37 34 32 32 33 33 32 31 34 41 47 47 43 37 35 38 42 44 44 42 44 46 47 47 51 53 50 43 41 39 32 26 27 28 28 27 36 59 96 121 133 139 142 145 144 144 143 140 136 133 131 128 126 124 127 136 152 166 176 178 173
38 38 38 39 41 42 43 42 40 38 38 41 44 44 43 43 46 49 51 49 45 42 42 46 51 54 55 55 58 61 63 62 63 63 62 61 64 61 55 53 61 71 79 86 99 110 117 120 123 124 127 127 128 127 125 122 119 116 113 110 108 109 116 127 139 148 153 155 155
39 40 40 40 41 44 45 46 47 50 55 58 59 58 56 55 56 58 58 58 58 58 61 63 65 68 69 71 74 76 77 76 75 74 75 77 78 76 72 71 75 80 87 95 105 111 114 112 112 113 113 112 113 113 113 113 113 111 110 109 110 114 120 127 132 136 139 141 143
41 43 44 46 47 51 54 57 61 66 68 68 67 65 65 65 67 69 72 73 74 74 75 76 77 78 80 81 83 84 85 83 80 78 78 79 80 79 76 73 72 72 73 78 89 100 105 104 103 103 105 106 108 110 113 115 116 115 114 116 121 125 128 131 135 139 143 144 145
45 49 53 56 61 64 66 68 70 71 72 72 72 73 74 76 78 80 81 81 81 81 81 81 82 83 84 84 84 84 82 80 79 78 78 77 78 77 75 72 70 69 68 68 74 85 96 102 103 104 107 110 112 113 113 114 115 115 118 122 126 128 130 133 138 143 146 146 147
52 58 63 66 68 70 72 73 74 74 75 76 78 80 82 83 84 85 85 85 84 84 84 83 83 83 84 83 82 79 77 77 79 80 81 80 79 78 76 75 74 73 72 72 75 83 93 102 109 113 115 116 116 114 112 110 112 115 119 123 125 127 129 132 138 142 145 146 148
58 62 66 68 70 71 73 74 76 77 79 81 83 85 86 86 87 88 87 86 86 87 87 86 84 83 83 82 81 79 78 79 81 82 83 83 82 81 80 79 78 78 78 78 80 85 92 101 112 120 122 120 117 114 111 110 112 115 118 120 123 126 128 131 134 139 144 150 154
61 63 66 68 70 71 73 75 77 79 80 83 84 85 87 88 89 89 89 88 88 89 88 87 85 84 83 82 81 81 81 82 83 84 84 84 84 83 82 82 81 81 82 83 84 85 88 94 107 119 124 123 119 116 114 114 114 116 118 119 123 127 131 134 137 140 144 149 157
66 68 69 70 71 72 74 77 78 79 81 83 85 86 88 90 90 90 90 90 90 89 87 86 85 84 83 82 82 83 84 85 86 87 87 87 87 86 86 85 83 82 82 82 82 82 84 88 98 113 123 125 122 119 117 117 118 120 122 124 128 132 136 138 140 142 144 147 152
72 75 76 75 75 77 78 80 81 82 84 85 88 89 89 90 90 90 90 90 88 86 85 85 85 86 85 85 87 88 89 90 91 93 93 93 92 91 89 88 86 83 81 80 81 81 82 85 91 103 115 118 116 115 117 119 122 126 129 131 134 136 137 137 137 137 137 137 138
77 79 80 81 82 83 83 84 85 87 88 89 90 90 90 90 89 89 88 87 85 85 86 88 89 90 90 92 94 94 95 95 96 97 96 95 94 92 91 89 87 85 82 81 82 82 84 86 90 97 106 111 111 114 119 124 128 130 131 131 132 132 131 129 127 125 123 121 120
81 83 85 86 87 87 88 89 90 90 90 91 90 90 89 88 86 86 86 86 87 90 93 96 96 95 95 97 97 96 95 96 96 95 94 93 92 90 88 86 84 83 82 82 83 84 86 88 92 101 109 114 116 120 124 127 129 128 127 126 125 124 123 121 117 114 111 109 106
84 86 87 88 88 90 91 93 93 93 93 92 91 89 88 86 86 86 88 90 94 96 98 98 97 96 96 97 96 95 94 93 91 91 91 90 89 87 85 82 80 80 80 80 82 84 86 89 96 105 113 116 118 121 124 126 124 122 120 118 118 116 114 113 109 105 101 96 92
85 86 87 88 89 91 93 94 95 95 95 93 92 90 89 88 89 90 92 95 97 98 98 97 96 96 95 95 95 94 93 93 93 93 92 92 90 87 84 81 79 78 79 80 82 84 87 91 98 106 112 114 116 118 119 118 116 114 111 109 107 105 104 101 98 93 86 78 71
85 87 87 88 90 91 93 94 95 96 95 93 92 91 91 91 91 92 94 97 99 100 101 101 101 101 101 101 102 101 100 99 99 98 97 96 94 91 88 85 82 80 80 81 83 85 89 93 99 105 108 110 110 110 110 109 106 103 101 97 94 91 88 86 83 77 70 62 54
88 89 90 90 91 92 93 94 95 95 94 92 91 92 93 94 95 96 98 102 104 105 106 107 108 109 109 108 107 106 106 104 103 102 101 100 99 97 94 91 87 84 82 83 84 86 88 92 96 99 102 102 102 101 98 96 94 91 89 86 83 79 76 73 69 66 62 59 56
96 96 95 95 94 94 94 95 95 95 94 93 93 94 95 97 100 103 106 110 111 111 111 112 112 112 110 108 106 105 105 105 105 104 104 104 103 102 99 96 93 88 84 84 84 84 85 86 88 90 91 91 90 87 85 84 82 81 80 78 75 72 68 64 59 55 53 54 66
105 105 104 101 99 98 98 98 98 96 95 96 97 98 100 102 105 109 113 116 115 115 114 114 113 111 109 107 106 104 103 103 105 106 106 104 103 103 101 98 95 90 86 85 84 82 81 80 79 79 79 79 79 77 76 75 75 74 73 72 70 66 63 57 48 41 37 34 30
111 113 112 108 105 103 102 102 101 100 100 101 103 105 107 109 110 112 116 119 119 117 116 114 110 107 106 104 103 102 101 101 102 103 102 101 99 98 97 95 92 89 85 83 81 79 75 72 69 68 68 68 69 70 70 70 70 70 69 68 67 64 58 48 38 31 29 28 27
110 114 115 112 109 107 105 103 103 104 105 107 108 110 111 112 112 115 119 122 121 120 117 113 109 107 105 104 103 101 100 99 99 98 97 96 94 93 92 90 88 85 82 79 76 72 68 64 61 59 58 60 63 66 67 67 68 68 67 65 62 58 52 43 34 27 23 22 22
100 106 110 110 109 107 105 104 105 107 110 111 112 113 114 115 117 120 123 124 122 120 116 113 110 108 107 105 103 101 99 97 95 93 92 91 90 88 88 87 86 84 81 78 74 70 66 63 62 60 59 59 62 65 67 68 68 68 65 61 57 53 48 43 37 29 22 17 15
87 92 95 99 100 102 103 104 106 108 110 111 113 114 117 120 122 124 125 124 121 117 113 110 108 107 106 104 102 99 97 94 91 88 87 86 85 85 85 86 87 87 85 83 78 74 71 69 67 66 64 64 66 68 69 71 70 67 64 59 55 52 48 45 41 35 27 20 12
Height
780 779 779 779 779 779 778 778 778 778 778 778 778 778 778 779 779 779 780 780 780 780 780 781 781 782 783 783 783 784 784 784 784 785 785 785 786 786 786 786 786 787 787 787 788 788 788 789 789 789 790 790 791 791 791 791 791 791 792 792 792 792 792 793 793 793 793 793 792
780 780 779 779 779 779 778 778 778 778 778 778 778 778 778 778 778 779 779 779 779 779 780 780 780 781 782 783 783 783 784 784 784 784 784 784 785 785 785 786 786 786 787 787 787 788 788 788 789 789 789 789 789 790 790 790 790 790 791 791 791 791 790 790 791 791 791 791 791
780 779 779 779 779 779 779 778 778 778 778 778 778 778 778 778 778 778 778 779 779 779 779 779 780 780 781 781 782 782 782 783 783 783 784 784 784 784 784 785 786 786 786 787 787 787 787 787 787 787 788 788 789 789 790 790 790 790 791 791 791 790 790 790 789 790 789 789 789
780 780 779 779 779 779 778 778 778 778 778 778 778 778 778 778 778 778 778 778 779 779 779 779 779 779 779 780 780 781 781 782 782 782 783 783 783 784 784 784 785 785 786 786 786 786 786 786 786 787 787 788 788 789 789 790 790 790 791 791 791 791 791 791 790 790 789 789 789
781 780 780 780 779 779 779 778 778 778 778 778 778 778 778 778 778 778 778 778 778 779 779 779 779 778 779 779 780 780 781 781 782 782 782 783 783 783 784 784 784 784 784 785 785 785 785 785 786 786 787 788 788 789 789 789 790 790 791 791 791 791 791 790 790 789 789 789 789
781 781 780 780 780 779 779 779 779 778 778 778 778 778 778 778 778 778 778 778 778 778 779 779 779 779 779 780 780 780 780 781 781 782 782 782 782 782 783 783 783 783 783 783 783 784 784 785 785 786 787 788 788 789 789 789 790 790 790 790 790 790 789 789 789 789 789 789 790
782 781 781 780 780 780 779 779 779 779 779 778 778 778 778 778 778 778 778 778 778 778 779 779 779 779 780 780 780 780 780 781 781 781 782 782 781 781 781 781 781 781 781 782 782 783 783 784 785 786 786 787 788 788 789 789 789 789 790 790 789 789 789 789 788 789 789 789 790
782 782 781 781 780 780 780 779 779 779 779 779 779 778 778 778 778 778 778 778 778 778 778 779 779 779 780 780 780 780 780 780 780 780 780 781 781 781 780 780 780 780 780 780 781 781 782 783 784 784 785 785 786 787 788 788 789 789 789 789 789 789 789 788 788 788 789 789 789
783 782 782 781 781 780 780 780 780 780 779 779 779 779 778 778 778 778 778 778 778 778 778 779 779 779 779 780 780 780 779 779 780 780 780 780 780 780 780 780 780 780 779 779 780 780 781 781 782 782 783 783 784 785 786 787 788 788 789 789 789 789 789 788 788 788 788 788 788
783 782 782 781 781 780 780 780 780 780 780 780 779 779 778 778 778 778 778 778 778 778 778 778 779 779 779 779 779 779 779 779 779 779 779 779 779 779 780 780 780 779 779 779 779 779 779 779 779 779 779 779 780 781 782 784 785 787 788 789 789 789 789 788 787 787 787 787 787
783 782 782 781 781 781 780 780 780 780 780 780 779 779 778 779 779 779 779 778 778 778 778 778 778 778 779 779 779 779 779 779 779 779 779 779 779 779 780 780 780 780 780 780 780 780 779 779 778 777 777 776 776 776 777 779 781 784 786 788 789 789 789 788 787 787 787 787 787
783 783 782 782 781 781 780 780 780 780 780 779 779 779 779 779 779 779 778 778 778 778 778 778 778 778 778 778 779 779 779 779 779 779 779 779 779 779 779 780 780 780 780 781 781 781 781 780 779 779 778 776 775 774 773 774 777 780 783 785 787 788 789 788 787 787 787 787 787
783 783 782 782 781 781 780 780 780 779 779 779 779 779 779 779 778 778 778 778 778 778 778 778 778 778 778 778 779 779 779 779 779 779 779 779 779 779 779 779 779 780 780 781 781 781 781 781 781 780 779 778 776 775 774 774 775 777 779 781 784 786 787 788 788 787 787 787 787
783 782 782 781 781 780 780 780 779 779 779 779 779 779 779 779 778 778 778 778 778 778 778 778 778 778 778 779 779 779 779 779 779 779 779 779 779 779 779 779 779 780 780 780 781 782 782 782 782 782 781 779 778 776 776 776 776 777 778 780 782 784 786 787 787 787 787 787 787
783 782 782 781 781 780 780 779 779 779 779 779 779 779 779 779 778 778 778 778 778 778 778 778 778 778 779 779 779 779 779 779 779 779 779 779 779 779 779 779 779 780 780 781 781 782 782 782 782 782 781 780 779 778 777 777 778 778 779 780 781 783 784 785 786 787 787 787 787
783 782 782 781 781 780 780 779 779 779 779 779 779 779 779 779 778 778 778 778 779 778 778 778 779 779 779 779 779 779 779 779 779 779 779 779 778 779 779 779 779 780 781 781 781 782 782 782 782 781 781 780 779 779 778 778 778 779 779 780 781 782 783 784 785 787 788 788 787
783 782 782 781 781 781 780 780 780 779 779 779 779 779 779 779 779 779 779 779 779 779 779 779 779 779 779 779 779 779 779 779 779 779 779 779 779 779 779 780 780 781 781 781 782 782 782 782 781 781 780 780 779 779 779 779 779 779 779 780 780 781 781 783 784 786 788 788 787
783 783 782 782 781 781 781 780 780 780 780 780 779 779 779 779 779 779 779 779 779 779 779 779 779 779 779 779 779 779 779 779 779 779 779 779 779 779 780 780 781 781 781 782 782 782 782 781 781 781 780 780 780 780 779 779 779 779 779 780 780 780 780 781 784 786 787 788 787
784 783 783 782 782 781 781 781 781 780 780 780 780 780 780 780 780 779 779 779 779 779 779 779 779 779 779 779 779 779 779 779 779 779 779 780 780 780 780 781 781 781 782 782 782 782 782 781 781 781 781 781 781 781 780 780 780 780 780 780 780 780 780 781 784 786 787 787 787
784 784 783 783 782 782 782 782 781 781 781 781 781 781 781 780 780 779 779 779 779 779 779 779 779 779 779 779 779 779 779 779 780 780 780 780 780 781 781 781 781 782 782 782 782 782 782 782 782 782 782 782 782 782 782 781 781 781 781 781 781 781 781 782 784 786 787 787 788
784 784 784 783 783 783 783 783 782 782 782 782 782 781 781 780 780 779 779 779 779 779 779 779 779 779 779 779 779 779 779 780 780 780 781 781 781 781 781 781 782 782 782 782 783 783 783 783 783 783 783 783 783 783 782 782 782 782 782 781 781 782 783 784 786 787 788 788 789
785 784 784 784 784 784 784 783 783 783 782 782 782 781 781 780 780 780 780 780 780 780 780 780 779 779 779 779 779 779 779 780 780 781 781 781 782 782 782 782 782 783 783 783 784 784 784 784 784 784 784 784 784 784 783 783 782 782 781 781 782 783 784 786 787 788 789 789 790
785 785 785 785 784 784 784 784 783 783 783 782 782 781 781 781 781 781 780 780 780 780 780 780 780 780 780 780 780 780 780 780 780 781 782 782 783 783 783 783 783 784 784 784 784 784 784 784 784 784 784 785 785 784 784 783 782 782 781 782 783 784 786 787 788 789 790 790 790
786 786 785 785 785 784 784 784 784 783 783 782 782 782 781 781 781 781 781 781 780 780 780 780 780 780 780 780 781 780 780 780 781 782 783 783 784 784 784 784 784 784 785 785 786 786 785 785 785 785 785 785 785 785 784 784 783 783 783 784 785 786 787 788 789 790 790 791 791
787 786 786 786 785 785 784 784 784 783 783 783 783 782 782 782 782 781 781 781 781 781 781 781 781 781 781 782 782 782 781 781 782 783 783 784 784 784 784 784 785 785 786 786 787 787 787 786 786 786 786 786 786 785 785 785 784 784 785 786 786 787 788 789 790 791 791 791 791
787 787 786 786 786 785 785 784 784 784 784 784 783 783 783 783 782 782 781 781 781 781 782 782 782 782 783 783 783 783 783 783 783 784 784 784 785 785 785 785 786 787 787 788 788 788 788 788 787 787 786 786 786 786 786 786 786 786 787 787 788 788 789 790 791 791 792 792 792
787 787 787 786 786 786 786 785 785 785 784 784 784 784 783 783 782 782 782 782 782 782 783 783 783 784 784 784 784 784 784 784 784 785 785 785 785 786 786 787 787 788 788 789 789 789 789 788 788 788 787 787 786 786 786 786 787 787 788 788 789 789 790 791 792 792 792 793 793
788 788 787 787 787 787 786 786 786 786 785 785 785 784 784 783 783 783 783 783 783 783 784 784 784 785 785 785 785 785 785 786 786 786 786 786 786 787 787 788 788 789 789 789 789 789 789 789 789 789 788 788 787 787 787 787 788 788 789 789 790 790 791 792 792 792 793 793 793
789 788 788 788 787 787 787 787 787 786 786 786 785 785 784 784 784 784 784 784 784 784 785 785 786 786 786 786 787 787 787 787 787 787 787 787 787 787 788 788 789 789 790 790 790 790 790 790 790 790 789 789 788 788 788 788 789 789 790 790 791 791 792 792 792 793 793 793 793
789 789 789 788 788 788 788 788 787 787 787 786 786 785 785 785 784 784 784 785 785 786 786 787 787 787 787 788 788 788 788 788 788 788 788 787 788 788 788 789 789 790 790 790 790 790 791 790 790 790 790 790 789 789 789 789 790 790 790 791 791 792 792 792 793 793 793 793 793
790 789 789 789 789 789 788 788 788 788 787 787 787 786 786 785 785 785 786 786 786 787 787 788 788 788 789 789 789 789 789 789 789 789 789 789 789 789 789 790 790 790 791 791 791 791 791 791 791 791 791 791 790 790 790 790 791 791 791 792 792 792 793 793 793 793 793 793 793
790 790 789 789 789 789 789 789 788 788 788 788 787 787 786 786 786 786 787 787 787 788 788 789 789 789 790 790 790 790 790 790 790 790 790 790 790 790 791 791 791 792 792 792 792 792 792 792 792 792 792 792 791 791 792 792 792 792 792 793 793 793 793 794 794 794 794 794 794
791 790 790 790 789 789 789 789 789 789 788 788 787 787 787 787 787 787 787 788 788 789 789 790 790 791 791 791 791 791 791 791 791 791 791 791 791 792 792 792 793 793 793 793 793 793 793 793 793 793 793 793 793 793 793 793 793 794 794 794 794 794 794 794 794 794 794 794 794
791 791 791 790 790 790 790 789 789 789 789 788 788 788 788 788 788 788 789 789 789 789 790 791 791 792 792 792 792 792 792 793 793 793 792 792 792 792 793 793 794 794 794 794 794 794 794 794 794 794 794 794 794 794 794 794 794 794 795 795 795 795 795 795 795 795 795 795 795
792 792 791 791 791 791 790 790 790 789 789 789 789 789 789 789 789 789 790 790 790 791 791 792 792 793 793 793 793 793 793 793 793 793 793 793 793 793 793 794 794 795 795 795 795 795 795 795 795 795 795 795 795 795 795 795 795 795 795 795 795 795 795 795 795 795 795 795 795
792 792 792 792 791 791 791 790 790 790 789 789 789 789 790 790 790 790 791 791 791 792 792 793 793 794 794 794 794 794 794 794 794 794 794 794 793 793 794 794 795 796 796 796 796 796 796 796 796 796 796 796 796 796 796 796 796 796 796 796 796 796 796 796 796 796 796 796 796
793 792 792 792 792 792 791 791 791 790 790 790 790 790 791 791 791 792 792 792 792 793 794 794 794 794 795 795 795 795 795 795 795 794 794 794 794 794 794 795 796 796 797 797 797 797 797 797 797 797 797 797 797 797 797 797 797 797 797 797 797 797 796 797 797 796 796 796 796
793 793 793 792 792 792 792 792 791 791 791 791 791 791 792 792 792 793 793 793 793 794 794 795 795 795 796 796 796 796 796 796 795 795 795 795 795 795 795 796 797 797 798 798 798 798 798 798 798 798 798 798 797 797 797 797 797 797 797 797 797 797 797 797 797 797 797 796 796
793 793 793 793 793 793 793 793 792 792 792 792 792 792 793 793 793 794 794 794 794 795 795 796 796 796 797 797 797 797 797 797 796 796 796 796 796 797 797 797 797 798 798 799 799 799 799 799 799 799 799 799 798 798 798 798 798 798 798 798 798 798 798 798 797 797 797 797 797
794 794 794 794 794 794 794 794 793 793 793 793 793 793 794 794 794 795 795 796 796 796 796 797 797 797 797 797 797 797 797 797 797 797 797 797 797 798 798 798 798 799 799 799 800 800 800 800 800 800 800 799 799 799 799 799 799 799 799 799 799 798 798 798 798 798 797 797 797
795 795 795 795 795 795 794 794 794 794 794 794 794 794 795 795 795 796 796 797 797 797 797 798 798 798 798 798 798 798 798 798 798 798 798 798 798 799 799 799 799 799 800 800 801 801 801 801 801 801 800 800 800 800 800 800 799 799 799 799 799 799 799 799 798 798 798 798 797